SCP
0 0 0 0 0 0 0 0 0 0 0 0 0 0 0 0 0 0 0 0 0 0 0 0 0 0 0 0 0 0 0 0 0 0 0 0 0 0 0 0 0 0 0 0
0 0 0 0 0 0 0 0 0 0 0 0 0 0 0 0 0 0 0 0 0 0 0 0 0 0 0 0 0 0 0 0 0 0 0 0 0 0 0 0 0 0 0 0
0 0 0 0 0 0 0 0 0 0 0 0 0 0 0 0 0 0 0 0 0 0 0 0 0 0 0 0 0 0 0 0 0 0 0 0 0 0 0 0 0 0 0 0
0 0 0 0 0 0 0 0 0 0 0 0 0 0 0 0 0 0 0 0 0 0 0 0 0 0 0 0 0 0 0 0 0 0 0 0 0 0 0 0 0 0 0 0
0 0 0 0 0 0 0 0 0 0 0 0 0 0 0 0 0 0 0 0 0 0 0 0 0 0 0 0 0 0 0 0 0 0 0 0 0 0 0 0 0 0 0 0
0 0 0 0 0 0 0 0 0 0 0 0 0 0 0 0 0 0 0 0 0 0 0 0 0 0 0 0 0 0 0 0 0 0 0 0 0 0 0 0 0 0 0 0
0 0 0 0 0 0 0 0 0 0 0 0 0 0 0 0 0 0 0 0 0 0 0 0 0 0 0 0 0 0 0 0 0 0 0 0 0 0 0 0 0 0 0 0
0 0 0 0 0 0 0 0 0 0 0 0 0 0 0 0 0 0 0 0 0 0 0 0 0 0 0 0 0 0 0 0 0 0 0 0 0 0 0 0 0 0 0 0
0 0 0 0 0 0 0 0 0 0 0 0 0 0 0 0 0 0 0 0 0 0 0 0 0 0 0 0 0 0 0 0 0 0 0 0 0 0 0 0 0 0 0 0
0 0 0 0 0 0 0 0 0 0 0 0 0 0 0 0 0 0 0 0 0 0 0 0 0 0 0 0 0 0 0 0 0 0 0 0 0 0 0 0 0 0 0 0
0 0 0 0 0 0 0 0 0 0 0 0 0 0 0 0 0 0 0 0 0 0 0 0 0 0 0 0 0 0 0 0 0 0 0 0 0 0 0 0 0 0 0 0
0 0 0 0 0 0 0 0 0 0 0 0 0 0 0 0 0 0 0 0 0 0 0 0 0 0 0 0 0 0 0 0 0 0 0 0 0 0 0 0 0 0 0 0
0 0 0 0 0 0 0 0 0 0 0 0 0 0 0 0 0 -0 -0 -0 -0 -0 -0 -0 -0 0 0 0 0 0 0 0 0 0 0 0 0 0 0 0 0 0 0 0
0 0 0 0 0 0 0 0 0 0 0 0 0 0 0 0 0 0 0 -0 -0 -0 -0 -0 -0 0 0 0 0 0 0 0 0 0 0 -0 0 0 0 0 0 0 0 0
0 0 0 0 0 0 0 0 0 0 0 0 0 0 0 -0 -0 0 0 0 0 0 0 0 -0 0 0 0 0 0 0 0 0 0 0 -0 0 0 0 0 0 0 0 0
0 0 0 0 0 0 0 0 0 0 0 0 0 -0 -0 -0 -0 0 0 0 0 0 0 0 -0 -0 -0 -0 0 0 0 0 0 0 0 0 0 0 0 0 0 0 0 0
0 0 0 0 0 0 0 0 0 0 0 0 -0 -0 -0 -0 -0 0 0 0 0 0 0 0 0 -0 0 0 0 0 0 0 0 0 0 0 0 0 0 0 0 0 0 0
0 0 0 0 0 0 0 0 0 0 0 0 -0 -0 -0 -0 -0 0 0 0 -0 -0 -0 0 -0 0 0 0 0 0 0 0 0 0 0 0 0 0 0 0 0 0 0 0
0 0 0 0 0 0 0 0 0 0 0 0 0 -0 -0 -0 -0 -0 -0 -0 -0 -0 -0 0 0 0 0 0 0 0 0 0 0 0 0 0 0 0 0 0 0 0 0 0
0 0 0 0 0 0 0 0 -0 0 0 0 0 0 0 -0 0 0 0 0 0 0 0 0 0 0 0 0 0 0 0 0 0 0 0 0 0 0 0 0 0 0 0 0
-0 0 0 0 0 0 0 0 -0 0 0 0 0 0 -0 0 0 0 0 0 0 0 0 0 0 0 0 0 0 0 0 0 0 0 0 0 0 0 0 0 0 0 0 0
-0 0 0 0 0 0 0 0 0 -0 -0 -0 -0 0 0 0 0 0 0 0 0 0 0 0 0 0 0 0 0 0 0 0 0 0 0 0 0 0 0 0 0 0 0 0
0 0 0 0 0 0 0 0 0 -0 -0 -0 -0 0 0 0 0 0 0 0 0 0 0 0 0 0 0 0 0 0 0 0 0 0 0 0 0 0 0 0 0 0 0 0
0 0 0 0 0 0 0 0 0 -0 -0 -0 -0 0 0 0 0 0 0 0 0 0 0 0 0 0 0 0 0 0 0 0 0 0 0 0 0 0 0 0 0 0 0 0
0 0 0 0 0 0 0 0 0 0 -0 -0 -0 0 0 0 0 0 0 0 0 0 0 0 0 0 0 0 0 0 0 0 0 0 0 0 0 0 0 0 0 0 0 0
0 0 0 0 0 0 0 0 0 0 0 0 0 0 0 0 0 0 0 0 0 0 0 0 0 0 0 0 0 0 0 0 0 0 0 0 0 0 0 0 0 0 0 0
0 0 0 0 0 0 0 0 0 0 0 0 0 0 0 0 0 0 0 0 0 0 0 0 0 0 0 0 0 0 0 0 0 0 0 0 0 0 0 0 0 0 0 0
Wind_Speed
2 3 2 3 4 2 3 5 5 6 6 5 4 5 6 7 8 9 9 8 8 8 8 8 9 9 9 9 9 9 10 11 10 8 8 8 8 7 7 7 7 6 6 5
3 4 3 3 7 5 2 2 6 8 5 5 7 7 7 7 7 8 8 8 8 8 8 8 8 8 8 8 8 8 10 9 8 8 8 7 7 7 6 6 5 5 4 4
2 4 3 3 5 3 3 2 3 5 5 9 8 8 7 6 7 8 8 8 8 7 7 7 7 7 8 7 7 8 8 8 7 7 7 6 6 6 6 5 4 4 4 4
1 1 3 3 2 4 5 5 4 8 10 9 10 8 8 7 7 8 7 7 7 7 7 7 7 7 7 7 7 8 7 6 6 6 6 6 6 5 4 3 3 3 3 3
2 2 1 1 1 1 1 3 3 8 10 10 10 7 6 7 8 8 7 7 7 7 7 7 7 6 7 7 6 6 6 5 5 5 5 5 5 4 3 3 3 3 3 3
3 3 5 3 2 3 3 1 2 5 8 9 6 3 3 5 8 9 8 7 7 7 7 7 6 6 7 6 5 5 5 4 4 4 4 4 4 3 3 3 3 3 4 4
2 2 3 2 6 2 2 4 3 4 6 6 2 3 8 9 8 8 8 7 7 7 6 5 5 5 6 5 4 3 4 4 4 4 4 4 3 3 3 3 4 4 4 4
1 1 3 5 5 1 1 1 3 3 4 7 9 11 10 9 9 8 8 7 6 6 5 4 4 5 5 3 2 3 3 4 3 3 3 3 4 3 4 4 4 4 4 5
2 3 1 3 2 2 1 2 2 4 6 11 11 10 10 9 8 7 7 6 5 5 4 4 3 3 3 1 1 3 3 3 3 3 3 3 3 3 2 3 2 3 3 4
1 1 0 2 2 3 3 2 3 5 9 10 11 11 10 9 7 6 5 5 4 4 4 3 2 2 1 0 1 3 2 2 1 2 2 2 2 1 1 1 1 2 3 5
2 2 0 1 2 3 4 6 7 7 8 10 12 12 10 8 7 5 4 3 3 3 3 2 2 2 1 1 2 2 2 1 1 1 1 1 1 0 0 1 2 1 2 3
4 4 4 2 2 3 6 6 8 10 10 10 10 11 9 7 5 4 4 3 3 3 2 2 2 2 2 1 2 3 1 0 0 0 0 0 1 2 2 2 3 3 4 4
2 2 4 5 4 4 6 7 8 9 11 11 8 8 8 5 4 4 3 3 3 2 1 1 1 2 2 1 1 2 2 1 1 0 0 0 1 1 3 4 5 5 6 8
4 5 5 3 5 7 9 9 10 10 9 9 8 7 6 5 4 4 3 2 2 2 1 1 1 2 2 0 1 2 2 1 2 1 1 1 1 1 1 2 3 4 5 7
2 4 6 8 9 9 9 10 10 9 8 7 6 6 6 5 4 3 3 3 3 2 1 1 2 3 2 1 1 2 2 1 1 1 1 1 1 1 1 2 2 3 4 5
6 8 10 11 10 9 9 9 9 8 7 6 5 5 5 5 4 3 3 3 3 2 1 1 2 4 3 1 1 1 1 3 3 2 2 2 2 2 1 2 3 3 4 4
9 8 9 10 10 9 7 7 7 7 6 6 6 6 6 6 5 4 4 3 3 2 1 2 4 5 3 1 1 1 1 2 4 3 2 2 2 1 1 2 3 3 4 5
7 8 10 11 10 9 8 8 7 7 6 6 7 7 6 6 5 4 3 3 3 2 2 3 4 4 3 1 1 1 2 2 2 2 2 2 2 1 1 2 3 4 4 5
8 10 10 10 9 9 8 7 7 6 6 7 7 6 5 5 5 4 3 3 2 2 4 5 6 4 3 2 2 2 3 4 3 3 2 3 2 2 1 2 3 4 4 4
9 10 10 9 8 8 8 7 7 6 6 7 7 6 5 4 4 4 3 2 0 2 4 4 3 3 3 2 4 3 4 4 3 3 2 2 2 2 1 2 2 3 4 4
10 10 10 9 8 8 8 8 8 7 6 7 7 6 5 4 4 4 3 0 2 3 2 3 2 2 2 3 4 3 3 3 3 3 2 2 2 2 2 2 2 3 4 4
9 9 9 9 9 7 6 7 8 8 7 6 6 6 6 5 4 2 1 1 2 1 1 2 2 2 4 4 3 3 4 4 3 2 2 2 2 2 2 2 2 3 4 4
8 8 9 9 9 8 7 6 7 8 7 7 6 6 5 4 3 3 1 1 1 0 1 1 2 4 6 4 3 3 3 3 3 2 2 2 2 2 2 3 3 3 4 4
7 8 8 8 8 8 7 6 6 6 6 5 5 6 5 4 2 1 1 1 2 1 1 1 4 6 6 4 3 3 3 3 2 2 2 2 2 3 3 3 3 3 4 5
8 8 8 9 8 6 6 6 6 5 5 3 4 4 3 3 3 3 2 2 2 2 1 2 5 6 4 3 3 3 2 2 2 3 3 3 3 3 3 3 3 3 3 4
8 7 7 7 6 6 6 6 5 4 4 3 2 2 2 2 3 3 2 2 2 2 2 1 2 3 3 3 3 3 3 3 3 3 3 3 3 3 3 3 4 3 3 3
7 6 5 5 4 5 6 6 5 5 5 5 3 3 3 3 3 3 3 2 2 2 2 2 2 2 3 3 3 3 3 3 3 3 3 3 3 3 3 4 3 3 3 3
Wind_Direction
22 6 38 35 1 6 114 155 149 155 147 144 117 98 85 81 84 79 72 70 70 69 69 70 71 71 73 73 72 78 81 79 78 76 75 75 74 73 73 74 78 81 82 79
3 15 42 36 7 5 59 111 134 140 145 131 116 102 90 84 85 82 75 74 74 73 71 72 74 76 78 77 76 80 83 81 80 79 78 76 75 73 73 72 71 72 68 61
299 329 26 343 341 357 39 8 162 172 151 133 115 98 82 76 81 81 77 75 74 74 72 73 75 78 81 79 78 78 79 78 76 78 74 68 74 72 69 65 64 59 48 42
175 68 224 241 35 70 80 39 59 106 119 119 111 93 73 71 84 81 78 77 77 80 81 79 79 77 78 78 78 79 78 76 76 78 76 70 67 65 60 57 55 44 34 26
127 152 234 222 318 347 97 52 57 119 121 116 117 97 67 61 77 83 83 85 84 83 85 83 78 78 80 74 73 75 75 74 75 79 78 70 63 55 47 54 47 34 29 21
132 160 218 226 341 341 112 161 180 140 143 144 143 132 126 97 89 88 85 86 87 86 83 79 72 75 77 71 69 68 70 74 74 76 78 73 64 55 45 53 46 36 29 18
135 195 263 344 314 331 177 234 168 151 151 149 126 104 117 108 96 93 91 89 88 85 79 74 73 77 76 70 63 57 66 73 72 71 80 79 69 58 59 59 48 33 19 0
117 190 256 344 355 94 222 19 86 115 120 113 107 109 110 109 106 101 96 90 87 86 76 61 64 79 78 66 53 66 74 78 74 66 74 88 83 67 57 54 45 24 6 354
203 221 293 353 13 356 38 77 85 113 124 126 125 122 118 112 107 101 98 92 84 87 73 52 50 83 89 52 76 84 81 76 74 72 66 79 89 80 58 47 40 12 0 349
229 243 300 16 26 25 37 75 101 119 127 128 127 125 119 115 110 106 98 91 86 84 75 48 32 57 113 138 127 116 108 91 84 83 66 60 69 82 78 40 20 1 352 344
253 246 203 37 55 67 77 90 99 104 112 125 126 124 121 119 116 110 100 86 87 91 78 46 36 42 33 94 123 124 131 128 106 94 83 44 26 304 252 246 238 292 318 319
233 219 185 177 128 108 101 101 113 115 108 112 119 120 119 116 115 113 106 98 95 90 82 52 43 27 15 59 122 133 144 150 113 115 87 37 0 347 331 315 318 311 312 315
207 116 116 115 108 99 103 105 109 113 119 116 113 116 117 114 115 114 115 118 122 123 116 75 34 4 353 27 124 149 178 189 172 158 144 42 19 2 349 354 6 10 354 350
128 114 107 112 114 109 110 109 105 103 106 110 112 112 110 109 116 128 142 151 141 127 103 53 13 330 318 298 158 169 179 184 166 164 142 96 63 38 19 358 347 340 337 337
100 118 127 120 113 110 112 114 111 109 109 106 111 116 120 124 134 146 147 131 110 89 54 28 345 316 313 245 196 198 185 174 153 133 115 101 89 73 41 13 351 338 336 339
106 106 118 122 122 120 120 121 120 120 119 117 118 123 127 128 126 119 118 122 115 102 26 357 316 303 302 263 203 198 197 178 152 135 115 104 91 78 45 15 357 348 346 344
131 136 136 135 134 132 130 131 129 126 124 124 128 125 118 112 104 98 92 95 107 99 15 326 305 309 309 279 198 182 156 143 136 124 115 115 103 84 51 15 356 347 341 344
150 147 147 146 145 140 134 130 127 127 128 130 127 123 126 130 132 130 118 102 86 48 1 330 317 321 334 1 96 127 128 122 116 115 113 110 104 88 55 19 358 353 348 351
130 133 135 138 140 137 135 133 133 131 128 128 129 132 133 133 133 129 116 102 81 10 324 327 336 352 1 22 84 104 111 111 103 96 99 102 95 82 56 30 12 2 2 4
130 134 135 134 132 133 134 133 130 127 129 128 123 121 121 128 131 127 116 100 274 272 299 322 344 359 12 41 82 94 103 107 106 99 92 90 89 80 62 44 27 16 12 13
140 141 141 139 138 137 138 138 135 135 135 136 138 143 143 138 133 127 118 52 314 323 335 353 7 10 36 76 84 91 95 99 99 97 96 95 92 83 71 53 36 24 17 12
144 144 143 139 135 134 137 137 137 135 132 133 133 132 131 131 128 112 102 214 286 332 16 4 3 48 88 87 84 90 92 94 92 91 92 96 99 92 75 61 45 33 22 15
141 142 142 143 142 138 131 134 139 140 142 147 151 153 153 151 147 141 175 257 267 44 44 9 53 85 91 79 81 86 90 92 90 90 92 96 99 96 87 74 58 43 29 20
136 138 139 134 127 127 134 145 142 144 147 150 158 156 146 138 139 166 180 189 174 132 59 53 87 96 89 79 80 81 83 87 88 88 89 89 90 89 88 84 71 50 37 30
135 132 131 133 136 143 144 134 122 122 125 125 134 142 142 146 153 168 162 165 153 123 66 67 99 101 87 84 83 82 79 85 96 96 90 92 93 93 89 84 73 58 43 32
138 142 147 149 146 141 137 132 131 136 133 130 130 131 126 118 119 125 135 141 135 117 94 80 97 95 87 87 85 84 82 86 88 86 93 95 99 99 95 88 78 62 48 37
124 123 120 114 120 134 138 139 142 153 158 155 156 155 146 137 133 139 137 125 118 103 94 95 99 98 98 95 89 85 83 85 90 93 94 94 96 97 98 94 81 68 55 43